TimeMST,TemperatureF,Dew PointF,Humidity,Sea Level PressureIn,VisibilityMPH,Wind Direction,Wind SpeedMPH,Gust SpeedMPH,PrecipitationIn,Events,Conditions,WindDirDegrees,DateUTC
12:53 AM,15.1,9.0,77,29.70,10.0,South,11.5,-,N/A,,Clear,170,2013-02-20 07:53:00
1:53 AM,12.9,8.1,81,29.72,10.0,South,9.2,-,N/A,,Clear,180,2013-02-20 08:53:00
2:53 AM,12.9,8.1,81,29.70,10.0,SSW,9.2,-,N/A,,Clear,200,2013-02-20 09:53:00
3:53 AM,10.9,5.0,77,29.71,10.0,WSW,8.1,-,N/A,,Clear,250,2013-02-20 10:53:00
4:53 AM,10.9,5.0,77,29.74,10.0,WSW,8.1,-,N/A,,Clear,240,2013-02-20 11:53:00
6:53 AM,14.0,3.9,64,29.75,10.0,SW,5.8,-,N/A,,Clear,220,2013-02-20 13:53:00
7:53 AM,14.0,5.0,67,29.75,10.0,South,4.6,-,N/A,,Clear,190,2013-02-20 14:53:00
8:53 AM,23.0,7.0,50,29.69,10.0,WSW,3.5,-,N/A,,Clear,240,2013-02-20 15:53:00
9:53 AM,28.0,8.1,43,29.65,10.0,Calm,Calm,-,N/A,,Clear,0,2013-02-20 16:53:00
10:53 AM,36.0,5.0,27,29.61,-9999.0,Calm,Calm,-,N/A,,Clear,0,2013-02-20 17:53:00
11:53 AM,42.1,5.0,22,29.55,10.0,Calm,Calm,-,N/A,,Clear,0,2013-02-20 18:53:00
12:53 PM,43.0,6.1,22,29.53,10.0,South,15.0,21.9,N/A,,Clear,170,2013-02-20 19:53:00
1:13 PM,42.8,12.2,29,29.52,10.0,South,20.7,25.3,N/A,,Clear,170,2013-02-20 20:13:00
1:53 PM,37.9,12.0,35,29.55,10.0,SSE,23.0,-,N/A,,Clear,160,2013-02-20 20:53:00
2:53 PM,37.0,12.0,36,29.56,-9999.0,SSE,19.6,-,N/A,,Clear,150,2013-02-20 21:53:00
3:53 PM,36.0,10.9,36,29.57,-9999.0,SE,16.1,-,N/A,,Overcast,140,2013-02-20 22:53:00
4:53 PM,30.9,12.9,47,29.62,-9999.0,SSE,13.8,-,N/A,,Overcast,160,2013-02-20 23:53:00
5:53 PM,27.0,12.9,56,29.65,10.0,SSW,11.5,-,N/A,,Overcast,210,2013-02-21 00:53:00
6:53 PM,21.0,16.0,81,29.68,10.0,South,15.0,19.6,N/A,,Overcast,170,2013-02-21 01:53:00
7:53 PM,19.0,17.1,92,29.70,10.0,SSE,15.0,-,N/A,,Clear,150,2013-02-21 02:53:00
8:02 PM,19.4,17.6,93,29.57,7.0,SSE,15.0,-,N/A,,Scattered Clouds,160,2013-02-21 03:02:00
8:53 PM,18.0,17.1,96,29.67,9.0,SSE,12.7,-,N/A,,Mostly Cloudy,160,2013-02-21 03:53:00
9:26 PM,17.6,17.6,100,29.59,10.0,SSE,11.5,-,N/A,,Mostly Cloudy,160,2013-02-21 04:26:00
9:53 PM,18.0,17.1,96,29.66,10.0,SSE,9.2,-,N/A,,Mostly Cloudy,160,2013-02-21 04:53:00
10:53 PM,16.0,14.0,92,29.63,10.0,Calm,Calm,-,N/A,,Clear,0,2013-02-21 05:53:00
11:19 PM,17.6,15.8,93,29.59,10.0,Calm,Calm,-,N/A,,Scattered Clouds,0,2013-02-21 06:19:00
11:34 PM,17.6,15.8,93,29.59,10.0,Calm,Calm,-,N/A,,Mostly Cloudy,0,2013-02-21 06:34:00
11:53 PM,18.0,16.0,92,29.59,10.0,NNW,3.5,-,N/A,,Overcast,340,2013-02-21 06:53:00